Time,TemperatureF,DewpointF,PressureIn,WindDirection,WindDirectionDegrees,WindSpeedMPH,WindSpeedGustMPH,Humidity,HourlyPrecipIn,Conditions,Clouds,dailyrainin,SoftwareType,DateUTC
2013-05-21 00:00:00,62.0,61.0,29.97,SW,221,3.0,-999.0,96,-99.99,,,-99.99,,2013-05-21 04:00:00,
2013-05-21 00:33:00,62.0,61.0,29.97,SW,221,3.0,-999.0,96,-99.99,,,-99.99,,2013-05-21 04:33:00,
2013-05-21 00:42:00,62.0,61.0,29.97,SW,221,3.0,-999.0,96,-99.99,,,-99.99,,2013-05-21 04:42:00,
2013-05-21 00:53:00,62.0,61.0,29.97,SW,221,3.0,-999.0,96,-99.99,,,-99.99,,2013-05-21 04:53:00,
2013-05-21 01:00:00,66.0,65.0,29.97,SW,231,3.0,7.0,96,-99.99,,,-99.99,,2013-05-21 05:00:00,
2013-05-21 01:22:00,66.0,65.0,29.97,SW,231,3.0,7.0,96,-99.99,,,-99.99,,2013-05-21 05:22:00,
2013-05-21 01:32:00,66.0,65.0,29.97,SW,231,3.0,7.0,96,-99.99,,,-99.99,,2013-05-21 05:32:00,
2013-05-21 01:42:00,66.0,65.0,29.97,SW,231,3.0,7.0,96,-99.99,,,-99.99,,2013-05-21 05:42:00,
2013-05-21 01:52:00,66.0,65.0,29.97,SW,231,3.0,7.0,96,-99.99,,,-99.99,,2013-05-21 05:52:00,
2013-05-21 02:00:00,66.0,64.0,29.97,SW,223,3.0,6.0,94,-99.99,,,-99.99,,2013-05-21 06:00:00,
2013-05-21 02:21:00,66.0,64.0,29.97,SW,223,3.0,6.0,94,-99.99,,,-99.99,,2013-05-21 06:21:00,
2013-05-21 02:32:00,66.0,64.0,29.97,SW,223,3.0,6.0,94,-99.99,,,-99.99,,2013-05-21 06:32:00,
2013-05-21 02:42:00,66.0,64.0,29.97,SW,223,3.0,6.0,94,-99.99,,,-99.99,,2013-05-21 06:42:00,
2013-05-21 02:52:00,66.0,64.0,29.97,SW,223,3.0,6.0,94,-99.99,,,-99.99,,2013-05-21 06:52:00,
2013-05-21 05:00:00,65.0,64.0,29.94,SW,225,4.0,6.0,96,-99.99,,,-99.99,,2013-05-21 09:00:00,
2013-05-21 05:21:00,65.0,64.0,29.94,SW,225,4.0,6.0,96,-99.99,,,-99.99,,2013-05-21 09:21:00,
2013-05-21 05:33:00,65.0,64.0,29.94,SW,225,4.0,6.0,96,-99.99,,,-99.99,,2013-05-21 09:33:00,
2013-05-21 05:42:00,65.0,64.0,29.94,SW,225,4.0,6.0,96,-99.99,,,-99.99,,2013-05-21 09:42:00,
2013-05-21 05:53:00,65.0,64.0,29.94,SW,225,4.0,6.0,96,-99.99,,,-99.99,,2013-05-21 09:53:00,
2013-05-21 06:00:00,65.0,64.0,29.97,SW,217,3.0,7.0,96,-99.99,,,-99.99,,2013-05-21 10:00:00,
2013-05-21 06:33:00,65.0,64.0,29.97,SW,217,3.0,7.0,96,-99.99,,,-99.99,,2013-05-21 10:33:00,
2013-05-21 06:42:00,65.0,64.0,29.97,SW,217,3.0,7.0,96,-99.99,,,-99.99,,2013-05-21 10:42:00,
2013-05-21 06:52:00,65.0,64.0,29.97,SW,217,3.0,7.0,96,-99.99,,,-99.99,,2013-05-21 10:52:00,
2013-05-21 07:00:00,68.0,66.0,29.97,WSW,244,6.0,8.0,94,-99.99,,,-99.99,,2013-05-21 11:00:00,
2013-05-21 07:22:00,68.0,66.0,29.97,WSW,244,6.0,8.0,94,-99.99,,,-99.99,,2013-05-21 11:22:00,
2013-05-21 07:32:00,68.0,66.0,29.97,WSW,244,6.0,8.0,94,-99.99,,,-99.99,,2013-05-21 11:32:00,
2013-05-21 07:42:00,68.0,66.0,29.97,WSW,244,6.0,8.0,94,-99.99,,,-99.99,,2013-05-21 11:42:00,
2013-05-21 07:52:00,68.0,66.0,29.97,WSW,244,6.0,8.0,94,-99.99,,,-99.99,,2013-05-21 11:52:00,
2013-05-21 08:00:00,70.0,66.0,29.97,SSW,208,8.0,12.0,89,-99.99,,,-99.99,,2013-05-21 12:00:00,
2013-05-21 08:21:00,70.0,66.0,29.97,SSW,208,8.0,12.0,89,-99.99,,,-99.99,,2013-05-21 12:21:00,
2013-05-21 08:32:00,70.0,66.0,29.97,SSW,208,8.0,12.0,89,-99.99,,,-99.99,,2013-05-21 12:32:00,
2013-05-21 08:42:00,70.0,66.0,29.97,SSW,208,8.0,12.0,89,-99.99,,,-99.99,,2013-05-21 12:42:00,
2013-05-21 08:52:00,70.0,66.0,29.97,SSW,208,8.0,12.0,89,-99.99,,,-99.99,,2013-05-21 12:52:00,
2013-05-21 09:00:00,73.0,67.0,29.97,SW,220,11.0,13.0,81,-99.99,,,-99.99,,2013-05-21 13:00:00,
2013-05-21 09:22:00,73.0,67.0,29.97,SW,220,11.0,13.0,81,-99.99,,,-99.99,,2013-05-21 13:22:00,
2013-05-21 09:32:00,73.0,67.0,29.97,SW,220,11.0,13.0,81,-99.99,,,-99.99,,2013-05-21 13:32:00,
2013-05-21 09:42:00,73.0,67.0,29.97,SW,220,11.0,13.0,81,-99.99,,,-99.99,,2013-05-21 13:42:00,
2013-05-21 09:52:00,73.0,67.0,29.97,SW,220,11.0,13.0,81,-99.99,,,-99.99,,2013-05-21 13:52:00,
2013-05-21 10:00:00,75.0,68.0,29.97,SW,221,9.0,13.0,77,-99.99,,,-99.99,,2013-05-21 14:00:00,
2013-05-21 10:21:00,75.0,68.0,29.97,SW,221,9.0,13.0,77,-99.99,,,-99.99,,2013-05-21 14:21:00,
2013-05-21 10:32:00,75.0,68.0,29.97,SW,221,9.0,13.0,77,-99.99,,,-99.99,,2013-05-21 14:32:00,
2013-05-21 10:42:00,75.0,68.0,29.97,SW,221,9.0,13.0,77,-99.99,,,-99.99,,2013-05-21 14:42:00,
2013-05-21 10:52:00,75.0,68.0,29.97,SW,221,9.0,13.0,77,-99.99,,,-99.99,,2013-05-21 14:52:00,
2013-05-21 11:00:00,78.0,68.0,29.94,SW,232,6.0,15.0,70,-99.99,,,-99.99,,2013-05-21 15:00:00,
2013-05-21 11:21:00,78.0,68.0,29.94,SW,232,6.0,15.0,70,-99.99,,,-99.99,,2013-05-21 15:21:00,
2013-05-21 11:33:00,78.0,68.0,29.94,SW,232,6.0,15.0,70,-99.99,,,-99.99,,2013-05-21 15:33:00,
2013-05-21 11:42:00,78.0,68.0,29.94,SW,232,6.0,15.0,70,-99.99,,,-99.99,,2013-05-21 15:42:00,
2013-05-21 11:53:00,78.0,68.0,29.94,SW,232,6.0,15.0,70,-99.99,,,-99.99,,2013-05-21 15:53:00,
2013-05-21 12:00:00,68.0,62.0,29.94,SSE,160,13.0,16.0,81,-99.99,,,-99.99,,2013-05-21 16:00:00,
2013-05-21 12:32:00,68.0,62.0,29.94,SSE,160,13.0,16.0,81,-99.99,,,-99.99,,2013-05-21 16:32:00,
2013-05-21 12:42:00,68.0,62.0,29.94,SSE,160,13.0,16.0,81,-99.99,,,-99.99,,2013-05-21 16:42:00,
2013-05-21 12:53:00,68.0,62.0,29.94,SSE,160,13.0,16.0,81,-99.99,,,-99.99,,2013-05-21 16:53:00,
2013-05-21 13:00:00,68.0,62.0,29.94,SSE,167,15.0,19.0,81,-99.99,,,-99.99,,2013-05-21 17:00:00,
2013-05-21 13:23:00,68.0,62.0,29.94,SSE,167,15.0,19.0,81,-99.99,,,-99.99,,2013-05-21 17:23:00,
2013-05-21 13:33:00,68.0,62.0,29.94,SSE,167,15.0,19.0,81,-99.99,,,-99.99,,2013-05-21 17:33:00,
2013-05-21 13:44:00,68.0,62.0,29.94,SSE,167,15.0,19.0,81,-99.99,,,-99.99,,2013-05-21 17:44:00,
2013-05-21 13:52:00,68.0,62.0,29.94,SSE,167,15.0,19.0,81,-99.99,,,-99.99,,2013-05-21 17:52:00,
2013-05-21 14:00:00,68.0,62.0,29.91,South,172,13.0,20.0,81,-99.99,,,-99.99,,2013-05-21 18:00:00,
2013-05-21 14:22:00,68.0,62.0,29.91,South,172,13.0,20.0,81,-99.99,,,-99.99,,2013-05-21 18:22:00,
2013-05-21 14:32:00,68.0,62.0,29.91,South,172,13.0,20.0,81,-99.99,,,-99.99,,2013-05-21 18:32:00,
2013-05-21 14:42:00,68.0,62.0,29.91,South,172,13.0,20.0,81,-99.99,,,-99.99,,2013-05-21 18:42:00,
2013-05-21 14:52:00,68.0,62.0,29.91,South,172,13.0,20.0,81,-99.99,,,-99.99,,2013-05-21 18:52:00,
2013-05-21 15:00:00,69.0,63.0,29.91,South,185,8.0,19.0,81,-99.99,,,-99.99,,2013-05-21 19:00:00,
2013-05-21 15:22:00,69.0,63.0,29.91,South,185,8.0,19.0,81,-99.99,,,-99.99,,2013-05-21 19:22:00,
2013-05-21 15:32:00,69.0,63.0,29.91,South,185,8.0,19.0,81,-99.99,,,-99.99,,2013-05-21 19:32:00,
2013-05-21 15:42:00,69.0,63.0,29.91,South,185,8.0,19.0,81,-99.99,,,-99.99,,2013-05-21 19:42:00,
2013-05-21 15:52:00,69.0,63.0,29.91,South,185,8.0,19.0,81,-99.99,,,-99.99,,2013-05-21 19:52:00,
2013-05-21 16:00:00,68.0,61.0,29.88,SSE,165,11.0,20.0,79,-99.99,,,-99.99,,2013-05-21 20:00:00,
2013-05-21 16:33:00,68.0,61.0,29.88,SSE,165,11.0,20.0,79,-99.99,,,-99.99,,2013-05-21 20:33:00,
2013-05-21 16:42:00,68.0,61.0,29.88,SSE,165,11.0,20.0,79,-99.99,,,-99.99,,2013-05-21 20:42:00,
2013-05-21 16:52:00,68.0,61.0,29.88,SSE,165,11.0,20.0,79,-99.99,,,-99.99,,2013-05-21 20:52:00,
2013-05-21 17:00:00,68.0,61.0,29.88,SSE,165,10.0,-999.0,80,-99.99,,,-99.99,,2013-05-21 21:00:00,
2013-05-21 17:22:00,68.0,61.0,29.88,SSE,165,10.0,-999.0,80,-99.99,,,-99.99,,2013-05-21 21:22:00,
2013-05-21 17:33:00,68.0,61.0,29.88,SSE,165,10.0,-999.0,80,-99.99,,,-99.99,,2013-05-21 21:33:00,
2013-05-21 17:44:00,68.0,61.0,29.88,SSE,165,10.0,-999.0,80,-99.99,,,-99.99,,2013-05-21 21:44:00,
2013-05-21 17:54:00,68.0,61.0,29.88,SSE,165,10.0,-999.0,80,-99.99,,,-99.99,,2013-05-21 21:54:00,
2013-05-21 18:00:00,69.0,62.0,29.85,South,169,7.0,15.0,78,-99.99,,,-99.99,,2013-05-21 22:00:00,
2013-05-21 18:23:00,69.0,62.0,29.85,South,169,7.0,15.0,78,-99.99,,,-99.99,,2013-05-21 22:23:00,
2013-05-21 18:33:00,69.0,62.0,29.85,South,169,7.0,15.0,78,-99.99,,,-99.99,,2013-05-21 22:33:00,
2013-05-21 18:42:00,69.0,62.0,29.85,South,169,7.0,15.0,78,-99.99,,,-99.99,,2013-05-21 22:42:00,
2013-05-21 18:53:00,69.0,62.0,29.85,South,169,7.0,15.0,78,-99.99,,,-99.99,,2013-05-21 22:53:00,
2013-05-21 19:00:00,69.0,63.0,29.85,SSE,168,9.0,13.0,81,-99.99,,,-99.99,,2013-05-21 23:00:00,
2013-05-21 19:22:00,69.0,63.0,29.85,SSE,168,9.0,13.0,81,-99.99,,,-99.99,,2013-05-21 23:22:00,
2013-05-21 19:32:00,69.0,63.0,29.85,SSE,168,9.0,13.0,81,-99.99,,,-99.99,,2013-05-21 23:32:00,
2013-05-21 19:42:00,69.0,63.0,29.85,SSE,168,9.0,13.0,81,-99.99,,,-99.99,,2013-05-21 23:42:00,
2013-05-21 19:52:00,69.0,63.0,29.85,SSE,168,9.0,13.0,81,-99.99,,,-99.99,,2013-05-21 23:52:00,
2013-05-21 20:00:00,68.0,64.0,29.88,South,189,5.0,15.0,87,-99.99,,,-99.99,,2013-05-22 00:00:00,
2013-05-21 20:22:00,68.0,64.0,29.88,South,189,5.0,15.0,87,-99.99,,,-99.99,,2013-05-22 00:22:00,
2013-05-21 20:32:00,68.0,64.0,29.88,South,189,5.0,15.0,87,-99.99,,,-99.99,,2013-05-22 00:32:00,
2013-05-21 20:42:00,68.0,64.0,29.88,South,189,5.0,15.0,87,-99.99,,,-99.99,,2013-05-22 00:42:00,
2013-05-21 20:52:00,68.0,64.0,29.88,South,189,5.0,15.0,87,-99.99,,,-99.99,,2013-05-22 00:52:00,
2013-05-21 21:00:00,65.0,62.0,29.88,SSE,160,4.0,11.0,89,-99.99,,,-99.99,,2013-05-22 01:00:00,
2013-05-21 21:22:00,65.0,62.0,29.88,SSE,160,4.0,11.0,89,-99.99,,,-99.99,,2013-05-22 01:22:00,
2013-05-21 21:32:00,65.0,62.0,29.88,SSE,160,4.0,11.0,89,-99.99,,,-99.99,,2013-05-22 01:32:00,
2013-05-21 21:42:00,65.0,62.0,29.88,SSE,160,4.0,11.0,89,-99.99,,,-99.99,,2013-05-22 01:42:00,
2013-05-21 21:52:00,65.0,62.0,29.88,SSE,160,4.0,11.0,89,-99.99,,,-99.99,,2013-05-22 01:52:00,
2013-05-21 22:00:00,64.0,60.0,29.88,South,170,8.0,10.0,88,-99.99,,,-99.99,,2013-05-22 02:00:00,
2013-05-21 22:32:00,64.0,60.0,29.88,South,170,8.0,10.0,88,-99.99,,,-99.99,,2013-05-22 02:32:00,
2013-05-21 22:42:00,64.0,60.0,29.88,South,170,8.0,10.0,88,-99.99,,,-99.99,,2013-05-22 02:42:00,
2013-05-21 22:52:00,64.0,60.0,29.88,South,170,8.0,10.0,88,-99.99,,,-99.99,,2013-05-22 02:52:00,
2013-05-21 23:00:00,69.0,66.0,29.88,SW,234,6.0,-999.0,91,-99.99,,,-99.99,,2013-05-22 03:00:00,
2013-05-21 23:22:00,69.0,66.0,29.88,SW,234,6.0,-999.0,91,-99.99,,,-99.99,,2013-05-22 03:22:00,
2013-05-21 23:33:00,69.0,66.0,29.88,SW,234,6.0,-999.0,91,-99.99,,,-99.99,,2013-05-22 03:33:00,
2013-05-21 23:43:00,69.0,66.0,29.88,SW,234,6.0,-999.0,91,-99.99,,,-99.99,,2013-05-22 03:43:00,
2013-05-21 23:53:00,69.0,66.0,29.88,SW,234,6.0,-999.0,91,-99.99,,,-99.99,,2013-05-22 03:53:00,